Aberdeen, United Kingdom

4:41 AM BST on June 28, 2017 (GMT +0100)
Dyce

Weather History for EGPD - November, 2012

Change the Weather History Date:

Saturday, November 24, 2012

  Actual Average Record
Temperature  
Mean Temperature 38 °F -  
Max Temperature 43 °F 45 °F 57 °F (2001)
Min Temperature 32 °F 33 °F 21 °F (2003)
Degree Days  
Heating Degree Days 28    
Moisture  
Dew Point 32 °F    
Average Humidity 88    
Maximum Humidity 100    
Minimum Humidity 64    
Precipitation  
Precipitation 0.03 in 0.10 in - ()
Sea Level Pressure  
Sea Level Pressure 29.85 in    
Wind  
Wind Speed 4 mph ()    
Max Wind Speed 8 mph    
Max Gust Speed -    
Visibility 6.8 miles    
Events Rain    
Averages and records for this station are not official NWS values.
T = Trace of Precipitation, MM = Missing Value Source: Averaged Metar Reports

Daily Weather History Graph

Daily Weather History Graph

Search for Another Location

Airport or City:

Trip Planner

Search our weather history database for the weather conditions in past years. The results will help you decide how hot, cold, wet, or windy it might be!

Date:

Astronomy

Nov. 24, 2012 Rise Set
Actual Time 8:10 AM GMT 3:40 PM GMT
Civil Twilight 7:24 AM GMT 4:26 PM GMT
Nautical Twilight 6:35 AM GMT 5:15 PM GMT
Astronomical Twilight 5:49 AM GMT 6:00 PM GMT
Moon 1:52 PM GMT (11/24) 3:33 AM GMT (11/24)
Length of Visible Light 9h 01m
Length of Day
7h 29m
Waxing Gibbous, 85% of the Moon is Illuminated
Nov 24
Waxing Gibbous
Nov 28
Full
Dec 6
Last Quarter
Dec 13
New
Dec 20
First Quarter

Hourly Weather History & Observations

Time (GMT) Temp. Windchill Dew Point Humidity Pressure Visibility Wind Dir Wind Speed Gust Speed Precip Events Conditions
12:20 AM 33.8 °F 28.6 °F 30.2 °F 87% 29.77 in 6.2 mi SW 5.8 mph - N/A   Unknown
12:50 AM 35.6 °F 30.7 °F 32.0 °F 87% 29.77 in - WSW 5.8 mph - N/A   Clear
1:20 AM 33.8 °F 30.8 °F 30.2 °F 87% 29.77 in 6.2 mi Variable 3.5 mph - N/A   Unknown
1:50 AM 33.8 °F 30.8 °F 30.2 °F 87% 29.80 in - Variable 3.5 mph - N/A   Clear
2:20 AM 32.0 °F 28.7 °F 28.4 °F 87% 29.80 in 6.2 mi SE 3.5 mph - N/A   Unknown
2:50 AM 34 °F - 30 °F 80% 29.83 in 25 mi South 5.8 mph - -  
2:50 AM 32.0 °F 25.6 °F 28.4 °F 87% 29.80 in - South 6.9 mph - N/A   Clear
3:20 AM 32.0 °F 27.5 °F 28.4 °F 87% 29.83 in 6.2 mi SW 4.6 mph - N/A   Unknown
3:50 AM 32.0 °F 26.4 °F 28.4 °F 87% 29.83 in 6.2 mi SSE 5.8 mph - N/A   Unknown
4:20 AM 33.8 °F 27.7 °F 30.2 °F 87% 29.83 in 6.2 mi SSW 6.9 mph - N/A   Unknown
4:50 AM 32.0 °F 26.4 °F 28.4 °F 87% 29.83 in - South 5.8 mph - N/A   Clear
5:20 AM 33.8 °F 27.7 °F 28.4 °F 81% 29.86 in - SSE 6.9 mph - N/A   Clear
5:50 AM 34 °F - 30 °F 79% 29.88 in 28 mi South 3.5 mph - -  
5:50 AM 32.0 °F 27.5 °F 28.4 °F 87% 29.86 in - SSW 4.6 mph - N/A   Clear
6:20 AM 32.0 °F 25.6 °F 28.4 °F 87% 29.86 in - South 6.9 mph - N/A   Clear
6:50 AM 32.0 °F 26.4 °F 30.2 °F 93% 29.86 in - SW 5.8 mph - N/A   Clear
7:20 AM 35.6 °F - 32.0 °F 87% 29.89 in - Variable 2.3 mph - N/A   Clear
7:50 AM 33.8 °F - 30.2 °F 87% 29.89 in - Calm Calm - N/A   Clear
8:20 AM 32.0 °F 27.5 °F 30.2 °F 93% 29.89 in - SSW 4.6 mph - N/A   Clear
8:50 AM 39 °F - 34 °F 77% 29.91 in 19 mi West 3.5 mph - -  
8:50 AM 33.8 °F 28.6 °F 32.0 °F 93% 29.89 in - SSW 5.8 mph - N/A   Clear
9:20 AM 37.4 °F 34.9 °F 33.8 °F 87% 29.89 in - Variable 3.5 mph - N/A   Clear
9:50 AM 35.6 °F - 32.0 °F 87% 29.92 in - East 2.3 mph - N/A   Clear
10:20 AM 39.2 °F - 33.8 °F 81% 29.92 in - ESE 2.3 mph - N/A   Clear
10:50 AM 41.0 °F 39.0 °F 33.8 °F 76% 29.92 in - Variable 3.5 mph - N/A   Clear
11:20 AM 41.0 °F 38.0 °F 33.8 °F 76% 29.92 in - SSW 4.6 mph - N/A   Clear
11:50 AM 41 °F - 33 °F 64% 29.92 in 22 mi South 8.1 mph - -  
11:50 AM 41.0 °F 38.0 °F 33.8 °F 76% 29.92 in - SSW 4.6 mph - N/A   Clear
12:20 PM 41.0 °F - 35.6 °F 81% 29.92 in - Variable 2.3 mph - N/A   Clear
12:50 PM 41.0 °F 39.0 °F 35.6 °F 81% 29.89 in - SE 3.5 mph - N/A   Clear
1:20 PM 41.0 °F 39.0 °F 35.6 °F 81% 29.89 in - Variable 3.5 mph - N/A   Clear
1:50 PM 39.2 °F 35.0 °F 35.6 °F 87% 29.89 in - South 5.8 mph - N/A   Clear
2:20 PM 39.2 °F 33.6 °F 35.6 °F 87% 29.89 in - South 8.1 mph - N/A   Clear
2:50 PM 38 °F - 34 °F 79% 29.90 in 22 mi South 8.1 mph - -  
2:50 PM 37.4 °F 32.1 °F 33.8 °F 87% 29.89 in - South 6.9 mph - N/A   Clear
3:20 PM 35.6 °F 29.9 °F 32.0 °F 87% 29.89 in - South 6.9 mph - N/A   Clear
3:50 PM 35.6 °F 29.9 °F 33.8 °F 93% 29.89 in - South 6.9 mph - N/A   Clear
4:20 PM 35.6 °F 31.7 °F 32.0 °F 87% 29.89 in - South 4.6 mph - N/A   Clear
4:50 PM 35.6 °F 31.7 °F 33.8 °F 93% 29.86 in - South 4.6 mph - N/A   Clear
5:20 PM 33.8 °F 30.8 °F 32.0 °F 93% 29.86 in - SSE 3.5 mph - N/A   Clear
5:50 PM 35 °F - 33 °F 87% 29.86 in 14 mi SE 2.3 mph - -   Overcast
5:50 PM 33.8 °F - 32.0 °F 93% 29.86 in - Calm Calm - N/A   Clear
6:20 PM 33.8 °F - 32.0 °F 93% 29.83 in - Calm Calm - N/A   Clear
6:50 PM 32.0 °F - 32.0 °F 100% 29.83 in 6.2 mi Calm Calm - N/A   Partly Cloudy
7:20 PM 33.8 °F - 32.0 °F 93% 29.83 in 6.2 mi Calm Calm - N/A   Partly Cloudy
7:50 PM 32.0 °F - 30.2 °F 93% 29.83 in 6.2 mi Calm Calm - N/A   Partly Cloudy
8:20 PM 32.0 °F - 32.0 °F 100% 29.83 in 6.2 mi Calm Calm - N/A   Partly Cloudy
8:50 PM 33 °F - 33 °F 99% 29.82 in 8 mi NNE 2.3 mph - -   Scattered Clouds
8:50 PM 32.0 °F 28.7 °F 30.2 °F 93% 29.80 in 6.2 mi NNW 3.5 mph - N/A   Scattered Clouds
9:20 PM 32.0 °F - 32.0 °F 100% 29.80 in 6.2 mi NNW 2.3 mph - N/A   Partly Cloudy
9:50 PM 32.0 °F - 32.0 °F 100% 29.77 in 5.6 mi Variable 2.3 mph - N/A   Scattered Clouds
10:20 PM 33.8 °F - 33.8 °F 100% 29.77 in 6.2 mi NW 2.3 mph - N/A   Scattered Clouds
10:50 PM 33.8 °F - 33.8 °F 100% 29.74 in 6.2 mi NW 2.3 mph - N/A   Scattered Clouds
11:20 PM 33.8 °F 30.8 °F 32.0 °F 93% 29.74 in 3.7 mi North 3.5 mph - N/A   Drizzle
11:50 PM 38 °F - 38 °F 99% 29.73 in 3 mi South 5.8 mph - - Rain Rain Showers
11:50 PM 35.6 °F 29.9 °F 35.6 °F 100% 29.71 in 1.7 mi South 6.9 mph - N/A Rain Rain